Location: Altenst�hlen
(53.5567°N, 8.9425°E)
Time: 12:49:34
(UTC+00:00)

STARLINK-68 - Pass Details

Date: 23 October 2019
Orbit: 548 x 551 km, 53.0° (Epoch: 13 November)

Event Time Altitude Azimuth Distance (km) Brightness Sun altitude
Rises 18:42:15 0° 283° (WNW) 2,721 8.7 -23.1°
Reaches altitude 10° 18:44:31 10° 279° (W) 1,826 7.4 -23.4°
Enters shadow 18:48:24 52° 212° (SSW) 685 4.1 -24.0°
